Year,Month,Day,Hour,Minute,Value (Times are PST for temperature in C)
2014,09,23,11,05,15.50
2014,09,23,11,06,15.50
2014,09,23,11,07,15.50
2014,09,23,11,08,15.50
2014,09,23,11,09,15.50
2014,09,23,11,10,15.50
2014,09,23,11,11,15.50
2014,09,23,11,12,15.50
2014,09,23,11,13,15.50
2014,09,23,11,14,15.60
2014,09,23,11,15,15.60
2014,09,23,11,16,15.60
2014,09,23,11,17,15.60
2014,09,23,11,18,15.50
2014,09,23,11,19,15.50
2014,09,23,11,20,15.50
2014,09,23,11,21,15.50
2014,09,23,11,22,15.60
2014,09,23,11,23,15.60
2014,09,23,11,24,15.60
2014,09,23,11,25,15.60
2014,09,23,11,26,15.70
2014,09,23,11,27,15.70
2014,09,23,11,28,15.70
2014,09,23,11,29,15.70
2014,09,23,11,30,15.70
2014,09,23,11,31,15.70
2014,09,23,11,32,15.70
2014,09,23,11,33,15.70
2014,09,23,11,34,15.70
2014,09,23,11,35,15.70
2014,09,23,11,36,15.70
2014,09,23,11,37,15.70
2014,09,23,11,38,15.70
2014,09,23,11,39,15.70
2014,09,23,11,40,15.70
2014,09,23,11,41,15.70
2014,09,23,11,42,15.70
2014,09,23,11,43,15.70
2014,09,23,11,44,15.70
2014,09,23,11,45,15.70
2014,09,23,11,46,15.80
2014,09,23,11,47,15.80
2014,09,23,11,48,15.70
2014,09,23,11,49,15.70
2014,09,23,11,50,15.70
2014,09,23,11,51,15.60
2014,09,23,11,52,15.60
2014,09,23,11,53,15.70
2014,09,23,11,54,15.60
2014,09,23,11,55,15.60
2014,09,23,11,56,15.60
2014,09,23,11,57,15.60
2014,09,23,11,58,15.60
2014,09,23,11,59,15.60
2014,09,23,12,00,15.60
2014,09,23,12,01,15.50
2014,09,23,12,02,15.50
2014,09,23,12,03,15.50
2014,09,23,12,04,15.50
2014,09,23,12,05,15.60
2014,09,23,12,06,15.60
2014,09,23,12,07,15.60
2014,09,23,12,08,15.60
2014,09,23,12,09,15.60
2014,09,23,12,10,15.60
2014,09,23,12,11,15.60
2014,09,23,12,12,15.60
2014,09,23,12,13,15.60
2014,09,23,12,14,15.60
2014,09,23,12,15,15.70
2014,09,23,12,16,15.70
2014,09,23,12,17,15.70
2014,09,23,12,18,15.70
2014,09,23,12,19,15.60
2014,09,23,12,20,15.60
2014,09,23,12,21,15.60
2014,09,23,12,22,15.50
2014,09,23,12,23,15.50
2014,09,23,12,24,15.40
2014,09,23,12,25,15.30
2014,09,23,12,26,15.30
2014,09,23,12,27,15.30
2014,09,23,12,28,15.40
2014,09,23,12,29,15.40
2014,09,23,12,30,15.40
2014,09,23,12,31,15.40
2014,09,23,12,32,15.40
2014,09,23,12,33,15.40
2014,09,23,12,34,15.40
2014,09,23,12,35,15.40
2014,09,23,12,36,15.40
2014,09,23,12,37,15.40
2014,09,23,12,38,15.40
2014,09,23,12,39,15.40
2014,09,23,12,40,15.50
2014,09,23,12,41,15.50
2014,09,23,12,42,15.50
2014,09,23,12,43,15.50
2014,09,23,12,44,15.50
2014,09,23,12,45,15.50
2014,09,23,12,46,15.50
2014,09,23,12,47,15.50
2014,09,23,12,48,15.50
2014,09,23,12,49,15.60
2014,09,23,12,50,15.60
2014,09,23,12,51,15.60
2014,09,23,12,52,15.60
2014,09,23,12,53,15.70
2014,09,23,12,54,15.70
2014,09,23,12,55,15.70
2014,09,23,12,56,15.70
2014,09,23,12,57,15.70
2014,09,23,12,58,15.70
2014,09,23,12,59,15.80
2014,09,23,13,00,15.80
2014,09,23,13,01,15.80
2014,09,23,13,02,15.80
2014,09,23,13,03,15.80
2014,09,23,13,04,15.80
2014,09,23,13,05,15.80
2014,09,23,13,06,15.80
2014,09,23,13,07,15.80
2014,09,23,13,08,15.80
2014,09,23,13,09,15.80
2014,09,23,13,10,15.80
2014,09,23,13,11,15.80
2014,09,23,13,12,15.80
2014,09,23,13,13,15.80
2014,09,23,13,14,15.80
2014,09,23,13,15,15.80
2014,09,23,13,16,15.80
2014,09,23,13,17,15.80
2014,09,23,13,18,15.80
2014,09,23,13,19,15.80
2014,09,23,13,20,15.80
2014,09,23,13,21,15.70
2014,09,23,13,22,15.70
2014,09,23,13,23,15.70
2014,09,23,13,24,15.70
2014,09,23,13,25,15.70
2014,09,23,13,26,15.60
2014,09,23,13,27,15.60
2014,09,23,13,28,15.60
2014,09,23,13,29,15.60
2014,09,23,13,30,15.60
2014,09,23,13,31,15.60
2014,09,23,13,32,15.60
2014,09,23,13,33,15.50
2014,09,23,13,34,15.50
2014,09,23,13,35,15.50
2014,09,23,13,36,15.50
2014,09,23,13,37,15.60
2014,09,23,13,38,15.60
2014,09,23,13,39,15.60
2014,09,23,13,40,15.60
2014,09,23,13,41,15.60
2014,09,23,13,42,15.60
2014,09,23,13,43,15.60
2014,09,23,13,44,15.60
2014,09,23,13,45,15.60
2014,09,23,13,46,15.60
2014,09,23,13,47,15.60
2014,09,23,13,48,15.60
2014,09,23,13,49,15.60
2014,09,23,13,50,15.60
2014,09,23,13,51,15.60
2014,09,23,13,52,15.60
2014,09,23,13,53,15.60
2014,09,23,13,54,15.60
2014,09,23,13,55,15.60
2014,09,23,13,56,15.60
2014,09,23,13,57,15.60
2014,09,23,13,58,15.60
2014,09,23,13,59,15.60
2014,09,23,14,00,15.60
2014,09,23,14,01,15.60
2014,09,23,14,02,15.60
2014,09,23,14,03,15.60
2014,09,23,14,04,15.70
2014,09,23,14,05,15.70
2014,09,23,14,06,15.70
2014,09,23,14,07,15.60
2014,09,23,14,08,15.60
2014,09,23,14,09,15.60
2014,09,23,14,10,15.60
2014,09,23,14,11,15.60
2014,09,23,14,12,15.70
2014,09,23,14,13,15.80
2014,09,23,14,14,15.80
2014,09,23,14,15,15.80
2014,09,23,14,16,15.80
2014,09,23,14,17,15.70
2014,09,23,14,18,15.70
2014,09,23,14,19,15.70
2014,09,23,14,20,15.70
2014,09,23,14,21,15.70
2014,09,23,14,22,15.80
2014,09,23,14,23,15.80
2014,09,23,14,24,15.80
2014,09,23,14,25,15.80
2014,09,23,14,26,15.80
2014,09,23,14,27,15.80
2014,09,23,14,28,15.80
2014,09,23,14,29,15.80
2014,09,23,14,30,15.80
2014,09,23,14,31,15.80
2014,09,23,14,32,15.80
2014,09,23,14,33,15.80
2014,09,23,14,34,15.80
2014,09,23,14,35,15.80
2014,09,23,14,36,15.80
2014,09,23,14,37,15.90
2014,09,23,14,38,15.90
2014,09,23,14,39,15.90
2014,09,23,14,40,16.00
2014,09,23,14,41,16.10
2014,09,23,14,42,16.10
2014,09,23,14,43,16.10
2014,09,23,14,44,16.10
2014,09,23,14,45,16.10
2014,09,23,14,46,16.10
2014,09,23,14,47,16.10
2014,09,23,14,48,16.10
2014,09,23,14,49,16.10
2014,09,23,14,50,16.10
2014,09,23,14,51,16.10
2014,09,23,14,52,16.10
2014,09,23,14,53,16.10
2014,09,23,14,54,16.10
2014,09,23,14,55,16.10
2014,09,23,14,56,16.20
2014,09,23,14,57,16.20
2014,09,23,14,58,16.30
2014,09,23,14,59,16.30
2014,09,23,15,00,16.30
2014,09,23,15,01,16.30
2014,09,23,15,02,16.30
2014,09,23,15,03,16.30
2014,09,23,15,04,16.30
2014,09,23,15,05,16.30
2014,09,23,15,06,16.30
2014,09,23,15,07,16.40
2014,09,23,15,08,16.40
2014,09,23,15,09,16.40
2014,09,23,15,10,16.40
2014,09,23,15,11,16.40
2014,09,23,15,12,16.40
2014,09,23,15,13,16.30
2014,09,23,15,14,16.30
2014,09,23,15,15,16.30
2014,09,23,15,16,16.30
2014,09,23,15,17,16.30
2014,09,23,15,18,16.30
2014,09,23,15,19,16.30
2014,09,23,15,20,16.30
2014,09,23,15,21,16.40
2014,09,23,15,22,16.40
2014,09,23,15,23,16.40
2014,09,23,15,24,16.40
2014,09,23,15,25,16.40
2014,09,23,15,26,16.40
2014,09,23,15,27,16.40
2014,09,23,15,28,16.50
2014,09,23,15,29,16.40
2014,09,23,15,30,16.50
2014,09,23,15,31,16.60
2014,09,23,15,32,16.50
2014,09,23,15,33,16.40
2014,09,23,15,34,16.40
2014,09,23,15,35,16.40
2014,09,23,15,36,16.40
2014,09,23,15,37,16.40
2014,09,23,15,38,16.40
2014,09,23,15,39,16.40
2014,09,23,15,40,16.40
2014,09,23,15,41,16.40
2014,09,23,15,42,16.50
2014,09,23,15,43,16.60
2014,09,23,15,44,16.60
2014,09,23,15,45,16.60
2014,09,23,15,46,16.60
2014,09,23,15,47,16.60
2014,09,23,15,48,16.70
2014,09,23,15,49,16.70
2014,09,23,15,50,16.70
2014,09,23,15,51,16.70
2014,09,23,15,52,16.70
2014,09,23,15,53,16.70
2014,09,23,15,54,16.70
2014,09,23,15,55,16.70
2014,09,23,15,56,16.70
2014,09,23,15,57,16.70
2014,09,23,15,58,16.70
2014,09,23,15,59,16.70
2014,09,23,16,00,16.70
2014,09,23,16,01,16.70
2014,09,23,16,02,16.70
2014,09,23,16,03,16.70
2014,09,23,16,04,16.70
2014,09,23,16,05,16.60
2014,09,23,16,06,16.60
2014,09,23,16,07,16.60
2014,09,23,16,08,16.60
2014,09,23,16,09,16.60
2014,09,23,16,10,16.60
2014,09,23,16,11,16.70
2014,09,23,16,12,16.70
2014,09,23,16,13,16.70
2014,09,23,16,14,16.70
2014,09,23,16,15,16.70
2014,09,23,16,16,16.70
2014,09,23,16,17,16.70
2014,09,23,16,18,16.70
2014,09,23,16,19,16.70
2014,09,23,16,20,16.70
2014,09,23,16,21,16.70
2014,09,23,16,22,16.60
2014,09,23,16,23,16.60
2014,09,23,16,24,16.60
2014,09,23,16,25,16.60
2014,09,23,16,26,16.60
2014,09,23,16,27,16.60
2014,09,23,16,28,16.60
2014,09,23,16,29,16.60
2014,09,23,16,30,16.60
2014,09,23,16,31,16.60
2014,09,23,16,32,16.70
2014,09,23,16,33,16.60
2014,09,23,16,34,16.60
2014,09,23,16,35,16.60
2014,09,23,16,36,16.60
2014,09,23,16,37,16.60
2014,09,23,16,38,16.40
2014,09,23,16,39,16.40
2014,09,23,16,40,16.40
2014,09,23,16,41,16.40
2014,09,23,16,42,16.40
2014,09,23,16,43,16.40
2014,09,23,16,44,16.40
2014,09,23,16,45,16.40
2014,09,23,16,46,16.40
2014,09,23,16,47,16.40
2014,09,23,16,48,16.40
2014,09,23,16,49,16.40
2014,09,23,16,50,16.30
2014,09,23,16,51,16.30
2014,09,23,16,52,16.30
2014,09,23,16,53,16.20
2014,09,23,16,54,16.20
2014,09,23,16,55,16.20
2014,09,23,16,56,16.20
2014,09,23,16,57,16.20
2014,09,23,16,58,16.10
2014,09,23,16,59,16.10
2014,09,23,17,00,16.10
2014,09,23,17,01,16.10
2014,09,23,17,02,16.10
2014,09,23,17,03,16.10
2014,09,23,17,04,16.10
2014,09,23,17,05,16.10
2014,09,23,17,06,16.10
2014,09,23,17,07,16.10
2014,09,23,17,08,16.10
2014,09,23,17,09,16.10
2014,09,23,17,10,16.10
2014,09,23,17,11,16.10
2014,09,23,17,12,16.10
2014,09,23,17,13,16.10
2014,09,23,17,14,16.00
2014,09,23,17,15,15.90
2014,09,23,17,16,15.90
2014,09,23,17,17,15.90
2014,09,23,17,18,15.90
2014,09,23,17,19,15.90
2014,09,23,17,20,15.90
2014,09,23,17,21,15.90
2014,09,23,17,22,15.90
2014,09,23,17,23,15.90
2014,09,23,17,24,15.90
2014,09,23,17,25,15.90
2014,09,23,17,26,15.90
2014,09,23,17,27,15.90
